sat.trackr.live / text

‹ back to catalog

STARLINK-35487

NORAD 66262 · 2025-245AE

PAYLOAD ACTIVE UNKNOWN

§ Identity

Operator
Country
US
Launch date
2025-10-29
Launch site
AFETR
Launch vehicle
Mass (kg)
RCS (m²)

Purposes: comms

External: N2YO · Heavens-Above · Gunter

§ Orbital elements

Epoch: 2026-09-20T21:48:30.272544Z

Period
94.01 min
Inclination
53.1588°
Eccentricity
0.0004247
Mean motion
15.31714401 rev/d
Perigee alt
467.8 km
Apogee alt
473.6 km
Semi-major
6,848.8 km
B*
4.3123e-4
RAAN
95.8183°
Arg perigee
63.3829°
Mean anomaly
296.7607°
Rev number
5,111

§ Raw data

STARLINK-354871 66262U 25245AE  26263.90868371  .00013047  00000+0  43123-3 0  99912 66262  53.1588  95.8183 0004247  63.3829 296.7607 15.31714401 51118

JSON: /api/v1/satellites/66262 · /tle

For live sub-satellite position, see the globe view (requires WebGL).

§ Visibility from observer

Set your observer location to see the next 7 days of passes ≥ 10°. The values pass through the URL so the page stays shareable.

No JS? Fill the form by hand. The geolocation button needs JavaScript.